| time (UTC) | temp C | wind direction | speed KPH | gust KPH | rain 1hr cm | rain 24hr cm | rain mn cm | humidity % | barometer mb |
| 20260508115217 | 5 | 149 | 0.0 | 0.0 | 0.00 | 0.03 | 0.76 | 93 | 1016.9 |
| 20260508114716 | 5 | 86 | 0.0 | 1.6 | 0.00 | 0.03 | 0.76 | 93 | 1016.8 |
| 20260508114216 | 5 | 90 | 0.0 | 1.6 | 0.00 | 0.03 | 0.76 | 93 | 1016.6 |
| 20260508113715 | 5 | 81 | 0.0 | 1.6 | 0.00 | 0.03 | 0.76 | 93 | 1016.8 |
| 20260508113215 | 5 | 58 | 0.0 | 1.6 | 0.00 | 0.03 | 0.76 | 93 | 1016.6 |
| 20260508112714 | 5 | 123 | 0.0 | 1.6 | 0.00 | 0.03 | 0.76 | 93 | 1016.6 |
| 20260508112213 | 6 | 196 | 0.0 | 1.6 | 0.00 | 0.03 | 0.76 | 92 | 1016.5 |
| 20260508111713 | 6 | 206 | 0.0 | 1.6 | 0.00 | 0.03 | 0.76 | 91 | 1016.5 |
| 20260508111212 | 6 | 101 | 0.0 | 0.0 | 0.00 | 0.03 | 0.76 | 90 | 1016.5 |
| 20260508110712 | 6 | 48 | 1.6 | 1.6 | 0.00 | 0.03 | 0.76 | 89 | 1016.6 |
| 20260508110211 | 6 | 56 | 1.6 | 1.6 | 0.00 | 0.03 | 0.76 | 89 | 1016.4 |
| 20260508105710 | 6 | 75 | 1.6 | 1.6 | 0.00 | 0.03 | 0.76 | 89 | 1016.5 |
| 20260508105210 | 6 | 60 | 0.0 | 1.6 | 0.00 | 0.03 | 0.76 | 89 | 1016.5 |
| 20260508104709 | 6 | 56 | 1.6 | 1.6 | 0.00 | 0.03 | 0.76 | 89 | 1016.5 |
| 20260508104208 | 6 | 60 | 1.6 | 1.6 | 0.00 | 0.03 | 0.76 | 90 | 1016.4 |
| 20260508103708 | 6 | 49 | 1.6 | 1.6 | 0.00 | 0.03 | 0.76 | 90 | 1016.5 |
| 20260508103207 | 6 | 47 | 1.6 | 3.2 | 0.00 | 0.03 | 0.76 | 91 | 1016.4 |
| 20260508102706 | 6 | 53 | 1.6 | 3.2 | 0.00 | 0.03 | 0.76 | 92 | 1016.3 |
| 20260508102206 | 6 | 57 | 1.6 | 1.6 | 0.00 | 0.03 | 0.76 | 92 | 1016.3 |
| 20260508101705 | 6 | 48 | 1.6 | 3.2 | 0.00 | 0.03 | 0.76 | 93 | 1016.3 |
| 20260508101205 | 6 | 39 | 1.6 | 1.6 | 0.00 | 0.03 | 0.76 | 93 | 1016.2 |
| 20260508100704 | 6 | 51 | 0.0 | 1.6 | 0.00 | 0.03 | 0.76 | 94 | 1015.8 |
| 20260508100203 | 6 | 92 | 0.0 | 0.0 | 0.00 | 0.03 | 0.76 | 95 | 1015.6 |
| 20260508095703 | 6 | 169 | 0.0 | 0.0 | 0.00 | 0.03 | 0.76 | 94 | 1015.5 |
| 20260508095202 | 6 | 0 | 0.0 | 0.0 | 0.00 | 0.03 | 0.76 | 92 | 1015.5 |
| 20260508094701 | 6 | 185 | 0.0 | 1.6 | 0.00 | 0.03 | 0.76 | 93 | 1015.3 |
| 20260508094200 | 6 | 169 | 0.0 | 0.0 | 0.00 | 0.03 | 0.76 | 92 | 1015.5 |
| 20260508093700 | 6 | 221 | 0.0 | 1.6 | 0.00 | 0.03 | 0.76 | 91 | 1015.6 |
| 20260508093159 | 7 | 190 | 0.0 | 1.6 | 0.00 | 0.03 | 0.76 | 90 | 1015.6 |
| 20260508092659 | 7 | 208 | 0.0 | 1.6 | 0.00 | 0.03 | 0.76 | 90 | 1015.7 |
| 20260508092158 | 7 | 188 | 0.0 | 1.6 | 0.00 | 0.03 | 0.76 | 89 | 1015.7 |
| 20260508091657 | 7 | 164 | 0.0 | 1.6 | 0.00 | 0.03 | 0.76 | 87 | 1015.7 |
| 20260508091157 | 8 | 97 | 0.0 | 1.6 | 0.00 | 0.03 | 0.76 | 86 | 1015.7 |
| 20260508090656 | 8 | 84 | 0.0 | 0.0 | 0.00 | 0.03 | 0.76 | 85 | 1015.8 |
| 20260508090155 | 8 | 61 | 0.0 | 1.6 | 0.00 | 0.03 | 0.76 | 85 | 1015.8 |
| 20260508085655 | 8 | 62 | 1.6 | 1.6 | 0.00 | 0.03 | 0.76 | 84 | 1015.8 |
| 20260508085154 | 8 | 58 | 1.6 | 3.2 | 0.00 | 0.03 | 0.76 | 84 | 1015.9 |
| 20260508084654 | 8 | 48 | 1.6 | 3.2 | 0.00 | 0.03 | 0.76 | 84 | 1016.1 |
| 20260508084153 | 8 | 52 | 1.6 | 3.2 | 0.00 | 0.03 | 0.76 | 83 | 1016.1 |
| 20260508083652 | 8 | 48 | 1.6 | 3.2 | 0.00 | 0.03 | 0.76 | 83 | 1016.2 |
| 20260508083151 | 8 | 40 | 1.6 | 3.2 | 0.00 | 0.03 | 0.76 | 83 | 1016.4 |
| 20260508082651 | 8 | 40 | 1.6 | 3.2 | 0.00 | 0.03 | 0.76 | 83 | 1016.4 |
| 20260508082150 | 8 | 43 | 1.6 | 1.6 | 0.00 | 0.03 | 0.76 | 84 | 1016.5 |
| 20260508081649 | 8 | 41 | 1.6 | 3.2 | 0.00 | 0.03 | 0.76 | 87 | 1016.5 |
| 20260508081149 | 7 | 88 | 0.0 | 0.0 | 0.00 | 0.03 | 0.76 | 90 | 1016.5 |
| 20260508080648 | 7 | 53 | 0.0 | 1.6 | 0.00 | 0.03 | 0.76 | 91 | 1016.5 |
| 20260508080147 | 8 | 232 | 0.0 | 0.0 | 0.00 | 0.03 | 0.76 | 90 | 1016.5 |
| 20260508075647 | 8 | 0 | 0.0 | 0.0 | 0.00 | 0.03 | 0.76 | 89 | 1016.5 |
| 20260508075146 | 8 | 0 | 0.0 | 0.0 | 0.00 | 0.03 | 0.76 | 87 | 1016.5 |
| 20260508074645 | 8 | 249 | 0.0 | 0.0 | 0.00 | 0.03 | 0.76 | 86 | 1016.5 |
| 20260508074145 | 8 | 321 | 0.0 | 0.0 | 0.00 | 0.03 | 0.76 | 86 | 1016.5 |
| 20260508073644 | 8 | 231 | 0.0 | 1.6 | 0.00 | 0.03 | 0.76 | 90 | 1016.5 |
| 20260508073143 | 8 | 293 | 0.0 | 0.0 | 0.00 | 0.03 | 0.76 | 90 | 1016.5 |
| 20260508072643 | 8 | 12 | 0.0 | 0.0 | 0.00 | 0.03 | 0.76 | 88 | 1016.5 |
| 20260508072142 | 8 | 0 | 0.0 | 0.0 | 0.00 | 0.03 | 1.14 | 88 | 1016.4 |
| 20260508071641 | 8 | 326 | 0.0 | 0.0 | 0.00 | 0.03 | 1.14 | 86 | 1016.3 |
| 20260508071141 | 8 | 317 | 0.0 | 0.0 | 0.03 | 0.03 | 1.14 | 85 | 1016.3 |
| 20260508070640 | 8 | 240 | 1.6 | 3.2 | 0.03 | 0.03 | 0.03 | 84 | 829.5 |
| 20260508070140 | 9 | 234 | 4.8 | 6.4 | 0.03 | 0.03 | 0.03 | 84 | 829.3 |
| 20260508065639 | 9 | 263 | 0.0 | 0.0 | 0.03 | 0.03 | 1.14 | 84 | 1016.1 |
| 20260508065138 | 10 | 219 | 0.0 | 1.6 | 0.03 | 0.03 | 1.14 | 81 | 1016.1 |
| 20260508064638 | 10 | 58 | 1.6 | 1.6 | 0.03 | 0.03 | 1.14 | 79 | 1016.1 |
| 20260508064137 | 10 | 54 | 1.6 | 1.6 | 0.03 | 0.03 | 1.14 | 79 | 1016.1 |
| 20260508063636 | 10 | 59 | 1.6 | 3.2 | 0.03 | 0.03 | 1.14 | 77 | 1015.9 |
| 20260508063135 | 10 | 82 | 1.6 | 3.2 | 0.03 | 0.03 | 0.89 | 76 | 1015.8 |
| 20260508062635 | 10 | 82 | 1.6 | 1.6 | 0.03 | 0.03 | 0.89 | 76 | 1015.6 |
| 20260508062134 | 11 | 123 | 1.6 | 1.6 | 0.03 | 0.03 | 0.86 | 74 | 1015.7 |
| 20260508061634 | 11 | 53 | 1.6 | 3.2 | 0.00 | 0.00 | 0.51 | 71 | 1016.9 |
| 20260508061133 | 11 | 337 | 0.0 | 1.6 | 0.00 | 0.00 | 0.00 | 66 | 1017.6 |
| 20260508060632 | 11 | 14 | 0.0 | 0.0 | 0.00 | 0.00 | 0.00 | 67 | 1017.5 |
| 20260508060132 | 11 | 31 | 1.6 | 3.2 | 0.00 | 0.00 | 0.00 | 66 | 1017.0 |
| 20260508055631 | 11 | 42 | 1.6 | 1.6 | 0.00 | 0.00 | 0.00 | 64 | 1016.4 |
| 20260508055130 | 11 | 49 | 1.6 | 3.2 | 0.00 | 0.00 | 0.00 | 64 | 1015.9 |
| 20260508054630 | 11 | 80 | 1.6 | 1.6 | 0.00 | 0.00 | 0.00 | 63 | 1015.8 |
| 20260508054129 | 11 | 68 | 1.6 | 1.6 | 0.00 | 0.00 | 0.00 | 63 | 1015.7 |
| 20260508053628 | 11 | 109 | 1.6 | 3.2 | 0.00 | 0.00 | 0.00 | 62 | 1015.6 |
| 20260508053128 | 11 | 154 | 1.6 | 3.2 | 0.00 | 0.00 | 0.00 | 62 | 1015.6 |
| 20260508052627 | 11 | 125 | 1.6 | 1.6 | 0.00 | 0.00 | 0.00 | 61 | 1015.6 |
| 20260508052127 | 12 | 134 | 1.6 | 1.6 | 0.00 | 0.00 | 0.00 | 60 | 1015.6 |
| 20260508051626 | 11 | 111 | 1.6 | 3.2 | 0.00 | 0.00 | 0.00 | 61 | 1015.6 |
| 20260508051125 | 11 | 100 | 3.2 | 4.8 | 0.00 | 0.00 | 0.00 | 62 | 1015.6 |
| 20260508050625 | 11 | 119 | 1.6 | 3.2 | 0.00 | 0.00 | 0.00 | 63 | 1015.6 |
| 20260508050124 | 11 | 138 | 1.6 | 1.6 | 0.00 | 0.00 | 0.00 | 63 | 1015.6 |
| 20260508045624 | 11 | 127 | 1.6 | 3.2 | 0.00 | 0.00 | 0.00 | 63 | 1015.6 |
| 20260508045123 | 11 | 113 | 1.6 | 1.6 | 0.00 | 0.00 | 0.00 | 63 | 1015.8 |
| 20260508044622 | 12 | 119 | 1.6 | 1.6 | 0.00 | 0.00 | 0.00 | 62 | 1015.9 |
| 20260508044122 | 12 | 74 | 1.6 | 1.6 | 0.00 | 0.00 | 0.00 | 62 | 1016.3 |
| 20260508043621 | 12 | 49 | 3.2 | 3.2 | 0.00 | 0.00 | 0.00 | 61 | 1016.3 |
| 20260508043120 | 12 | 37 | 1.6 | 3.2 | 0.00 | 0.00 | 0.00 | 62 | 1016.2 |
| 20260508042620 | 12 | 90 | 0.0 | 1.6 | 0.00 | 0.00 | 0.00 | 61 | 1015.9 |
| 20260508042119 | 12 | 70 | 1.6 | 1.6 | 0.00 | 0.00 | 0.00 | 61 | 1015.6 |
| 20260508041618 | 12 | 138 | 1.6 | 3.2 | 0.00 | 0.00 | 0.00 | 60 | 1015.2 |
| 20260508041118 | 12 | 103 | 1.6 | 3.2 | 0.00 | 0.00 | 0.00 | 59 | 1015.1 |
| 20260508040617 | 12 | 90 | 1.6 | 3.2 | 0.00 | 0.00 | 0.00 | 59 | 1015.2 |
| 20260508040116 | 12 | 61 | 1.6 | 3.2 | 0.00 | 0.00 | 0.00 | 58 | 1015.2 |
| 20260508035616 | 12 | 96 | 3.2 | 4.8 | 0.00 | 0.00 | 0.00 | 57 | 1015.2 |
| 20260508035115 | 13 | 77 | 3.2 | 3.2 | 0.00 | 0.00 | 0.00 | 56 | 1015.3 |
| 20260508034615 | 13 | 73 | 3.2 | 4.8 | 0.00 | 0.00 | 0.00 | 55 | 1015.5 |
| 20260508034114 | 13 | 59 | 3.2 | 4.8 | 0.00 | 0.00 | 0.00 | 54 | 1015.5 |
| 20260508033613 | 13 | 72 | 3.2 | 6.4 | 0.00 | 0.00 | 0.00 | 52 | 1015.6 |
| 20260508033112 | 14 | 69 | 3.2 | 4.8 | 0.00 | 0.00 | 0.00 | 49 | 1015.6 |
| 20260508032612 | 15 | 65 | 4.8 | 6.4 | 0.00 | 0.00 | 0.00 | 44 | 1015.3 |
| 20260508032111 | 15 | 43 | 3.2 | 3.2 | 0.00 | 0.00 | 0.00 | 41 | 1015.3 |
| 20260508031610 | 15 | 49 | 1.6 | 1.6 | 0.00 | 0.00 | 0.00 | 40 | 1015.2 |
| 20260508031110 | 15 | 64 | 0.0 | 0.0 | 0.00 | 0.00 | 0.00 | 40 | 1015.1 |
| 20260508030609 | 15 | 146 | 0.0 | 1.6 | 0.00 | 0.00 | 0.00 | 41 | 1015.1 |
| 20260508030108 | 15 | 71 | 0.0 | 0.0 | 0.00 | 0.00 | 0.00 | 40 | 1015.0 |
| 20260508025608 | 15 | 83 | 0.0 | 0.0 | 0.00 | 0.00 | 0.00 | 39 | 1014.9 |
| 20260508025107 | 15 | 53 | 0.0 | 0.0 | 0.00 | 0.00 | 0.00 | 41 | 1014.8 |
| 20260508024606 | 15 | 281 | 0.0 | 0.0 | 0.00 | 0.00 | 0.00 | 41 | 1014.8 |
| 20260508024106 | 15 | 269 | 0.0 | 0.0 | 0.00 | 0.00 | 0.00 | 40 | 1014.8 |
| 20260508023605 | 15 | 294 | 0.0 | 0.0 | 0.00 | 0.00 | 0.00 | 40 | 1014.6 |
| 20260508023104 | 15 | 265 | 0.0 | 0.0 | 0.00 | 0.00 | 0.00 | 40 | 1014.6 |
| 20260508022604 | 16 | 257 | 0.0 | 1.6 | 0.00 | 0.00 | 0.00 | 40 | 1014.5 |
| 20260508022103 | 16 | 265 | 1.6 | 1.6 | 0.00 | 0.00 | 0.00 | 38 | 1014.5 |
| 20260508021602 | 16 | 261 | 1.6 | 1.6 | 0.00 | 0.00 | 0.00 | 39 | 1014.6 |
| 20260508021101 | 17 | 251 | 4.8 | 8.0 | 0.00 | 0.00 | 0.00 | 34 | 1014.6 |
| 20260508020601 | 16 | 36 | 3.2 | 4.8 | 0.00 | 0.00 | 0.00 | 32 | 1014.4 |
| 20260508020100 | 16 | 38 | 1.6 | 4.8 | 0.00 | 0.00 | 0.00 | 34 | 1014.4 |
| 20260508015600 | 16 | 37 | 4.8 | 4.8 | 0.00 | 0.00 | 0.00 | 34 | 1014.3 |
| 20260508015059 | 17 | 33 | 3.2 | 4.8 | 0.00 | 0.00 | 0.00 | 33 | 1014.2 |
| 20260508014558 | 17 | 49 | 3.2 | 6.4 | 0.00 | 0.00 | 0.00 | 33 | 1014.1 |
| 20260508014058 | 17 | 48 | 3.2 | 6.4 | 0.00 | 0.00 | 0.00 | 35 | 1013.8 |
| 20260508013557 | 17 | 50 | 3.2 | 4.8 | 0.00 | 0.00 | 0.00 | 35 | 1013.8 |
| 20260508013056 | 17 | 50 | 3.2 | 4.8 | 0.00 | 0.00 | 0.00 | 33 | 1013.8 |
| 20260508012556 | 18 | 47 | 3.2 | 4.8 | 0.00 | 0.00 | 0.00 | 30 | 1013.8 |
| 20260508012055 | 18 | 46 | 3.2 | 4.8 | 0.00 | 0.00 | 0.00 | 28 | 1013.7 |
| 20260508011554 | 18 | 78 | 3.2 | 4.8 | 0.00 | 0.00 | 0.00 | 29 | 1013.5 |
| 20260508011054 | 18 | 39 | 1.6 | 3.2 | 0.00 | 0.00 | 0.00 | 27 | 1013.3 |
| 20260508010553 | 18 | 33 | 1.6 | 3.2 | 0.00 | 0.00 | 0.00 | 26 | 1013.3 |
| 20260508010052 | 18 | 30 | 0.0 | 1.6 | 0.00 | 0.00 | 0.00 | 25 | 1013.2 |
| 20260508005552 | 18 | 12 | 0.0 | 1.6 | 0.00 | 0.00 | 0.00 | 25 | 1013.1 |
| 20260508005051 | 18 | 304 | 0.0 | 1.6 | 0.00 | 0.00 | 0.00 | 27 | 1013.2 |
| 20260508004550 | 18 | 290 | 0.0 | 1.6 | 0.00 | 0.00 | 0.00 | 26 | 1013.1 |
| 20260508004050 | 18 | 302 | 0.0 | 1.6 | 0.00 | 0.00 | 0.00 | 25 | 1013.1 |
| 20260508003549 | 18 | 312 | 0.0 | 0.0 | 0.00 | 0.00 | 0.00 | 25 | 1013.1 |
| 20260508003048 | 19 | 286 | 1.6 | 1.6 | 0.00 | 0.00 | 0.00 | 25 | 1013.1 |
| 20260508002548 | 19 | 296 | 0.0 | 1.6 | 0.00 | 0.00 | 0.00 | 25 | 1013.1 |
| 20260508002047 | 19 | 310 | 0.0 | 0.0 | 0.00 | 0.00 | 0.00 | 26 | 1013.1 |
| 20260508001547 | 19 | 271 | 1.6 | 1.6 | 0.00 | 0.00 | 0.00 | 25 | 1013.0 |
| 20260508001046 | 19 | 285 | 1.6 | 1.6 | 0.00 | 0.00 | 0.00 | 24 | 826.8 |
| 20260508000545 | 20 | 342 | 0.0 | 1.6 | 0.00 | 0.00 | 0.00 | 24 | 1013.0 |
| 20260508000045 | 19 | 291 | 0.0 | 0.0 | 0.00 | 0.00 | 0.00 | 25 | 1013.1 |
| 20260507235544 | 19 | 13 | 0.0 | 1.6 | 0.00 | 0.00 | 0.00 | 25 | 1013.1 |
| 20260507235043 | 19 | 297 | 0.0 | 1.6 | 0.00 | 0.00 | 0.00 | 25 | 1013.1 |
| 20260507234543 | 19 | 300 | 0.0 | 1.6 | 0.00 | 0.00 | 0.00 | 24 | 1013.0 |
| 20260507234042 | 20 | 285 | 0.0 | 1.6 | 0.00 | 0.00 | 0.00 | 25 | 1013.0 |
| 20260507233541 | 20 | 258 | 0.0 | 1.6 | 0.00 | 0.00 | 0.00 | 25 | 1013.1 |
| 20260507233041 | 20 | 316 | 0.0 | 1.6 | 0.00 | 0.00 | 0.00 | 25 | 1013.1 |
| 20260507232540 | 20 | 304 | 0.0 | 1.6 | 0.00 | 0.00 | 0.00 | 25 | 1013.2 |
| 20260507232039 | 20 | 12 | 1.6 | 3.2 | 0.00 | 0.00 | 0.00 | 26 | 1013.2 |
| 20260507231538 | 20 | 271 | 1.6 | 1.6 | 0.00 | 0.00 | 0.00 | 26 | 1013.2 |
| 20260507231038 | 20 | 270 | 1.6 | 1.6 | 0.00 | 0.00 | 0.00 | 25 | 1013.2 |
| 20260507230537 | 21 | 314 | 0.0 | 1.6 | 0.00 | 0.00 | 0.00 | 24 | 1013.3 |
| 20260507230037 | 21 | 291 | 1.6 | 1.6 | 0.00 | 0.00 | 0.00 | 24 | 1013.3 |
| 20260507225536 | 20 | 342 | 0.0 | 1.6 | 0.00 | 0.00 | 0.00 | 24 | 1013.3 |
| 20260507225035 | 20 | 29 | 1.6 | 6.4 | 0.00 | 0.00 | 0.00 | 24 | 1013.2 |
| 20260507224535 | 20 | 279 | 1.6 | 1.6 | 0.00 | 0.00 | 0.00 | 24 | 1013.3 |
| 20260507224034 | 20 | 293 | 0.0 | 1.6 | 0.00 | 0.00 | 0.00 | 25 | 1013.3 |
| 20260507223533 | 20 | 330 | 0.0 | 1.6 | 0.00 | 0.00 | 0.00 | 25 | 1013.3 |
| 20260507223033 | 20 | 271 | 1.6 | 3.2 | 0.00 | 0.00 | 0.00 | 26 | 1013.2 |
| 20260507222532 | 20 | 324 | 1.6 | 1.6 | 0.00 | 0.00 | 0.00 | 24 | 1013.3 |
| 20260507222032 | 20 | 310 | 1.6 | 1.6 | 0.00 | 0.00 | 0.00 | 25 | 1013.3 |
| 20260507221531 | 20 | 281 | 1.6 | 1.6 | 0.00 | 0.00 | 0.00 | 25 | 1013.5 |
| 20260507221030 | 20 | 290 | 1.6 | 3.2 | 0.00 | 0.00 | 0.00 | 26 | 1013.5 |
| 20260507220530 | 20 | 288 | 1.6 | 1.6 | 0.00 | 0.00 | 0.00 | 26 | 1013.6 |
| 20260507220029 | 20 | 304 | 1.6 | 1.6 | 0.00 | 0.00 | 0.00 | 25 | 1013.7 |
| 20260507215529 | 20 | 294 | 1.6 | 1.6 | 0.00 | 0.00 | 0.00 | 24 | 1013.7 |
| 20260507215028 | 20 | 19 | 0.0 | 1.6 | 0.00 | 0.00 | 0.00 | 26 | 1013.8 |
| 20260507214527 | 20 | 295 | 1.6 | 1.6 | 0.00 | 0.00 | 0.00 | 26 | 1014.1 |
| 20260507214027 | 20 | 303 | 1.6 | 1.6 | 0.00 | 0.00 | 0.00 | 25 | 1014.1 |
| 20260507213526 | 20 | 308 | 1.6 | 3.2 | 0.00 | 0.00 | 0.00 | 26 | 1014.2 |
| 20260507213025 | 20 | 282 | 1.6 | 1.6 | 0.00 | 0.00 | 0.00 | 25 | 1014.2 |
| 20260507212525 | 20 | 300 | 1.6 | 1.6 | 0.00 | 0.00 | 0.00 | 25 | 1014.2 |
| 20260507212024 | 20 | 330 | 1.6 | 3.2 | 0.00 | 0.00 | 0.00 | 26 | 1014.3 |
| 20260507211524 | 20 | 320 | 1.6 | 3.2 | 0.00 | 0.00 | 0.00 | 25 | 1014.4 |
| 20260507211023 | 20 | 286 | 1.6 | 1.6 | 0.00 | 0.00 | 0.00 | 27 | 1014.4 |
| 20260507210522 | 20 | 289 | 1.6 | 3.2 | 0.00 | 0.00 | 0.00 | 26 | 1014.5 |
| 20260507210021 | 19 | 310 | 1.6 | 3.2 | 0.00 | 0.00 | 0.00 | 26 | 1014.5 |
| 20260507205521 | 20 | 289 | 1.6 | 3.2 | 0.00 | 0.00 | 0.00 | 26 | 1014.5 |
| 20260507205020 | 20 | 319 | 1.6 | 1.6 | 0.00 | 0.00 | 0.00 | 26 | 1014.5 |
| 20260507204519 | 20 | 323 | 1.6 | 3.2 | 0.00 | 0.00 | 0.00 | 26 | 1014.5 |
| 20260507204018 | 19 | 329 | 1.6 | 1.6 | 0.00 | 0.00 | 0.00 | 27 | 1014.5 |
| 20260507203518 | 19 | 287 | 1.6 | 1.6 | 0.00 | 0.00 | 0.00 | 27 | 1014.5 |
| 20260507203017 | 18 | 300 | 1.6 | 1.6 | 0.00 | 0.00 | 0.00 | 28 | 1014.6 |
| 20260507202516 | 18 | 284 | 1.6 | 4.8 | 0.00 | 0.00 | 0.00 | 28 | 1014.6 |
| 20260507202015 | 18 | 295 | 1.6 | 1.6 | 0.00 | 0.00 | 0.00 | 27 | 1014.6 |
| 20260507201515 | 18 | 302 | 1.6 | 3.2 | 0.00 | 0.00 | 0.00 | 28 | 1014.6 |
| 20260507201014 | 18 | 298 | 1.6 | 3.2 | 0.00 | 0.00 | 0.00 | 27 | 1014.8 |
| 20260507200514 | 18 | 287 | 1.6 | 1.6 | 0.00 | 0.00 | 0.00 | 28 | 1014.9 |
| 20260507200013 | 18 | 297 | 1.6 | 3.2 | 0.00 | 0.00 | 0.00 | 28 | 1015.0 |
| 20260507195512 | 18 | 301 | 3.2 | 4.8 | 0.00 | 0.00 | 0.00 | 27 | 1015.0 |
| 20260507195012 | 18 | 282 | 1.6 | 3.2 | 0.00 | 0.00 | 0.00 | 29 | 1015.1 |
| 20260507194511 | 17 | 301 | 3.2 | 6.4 | 0.00 | 0.00 | 0.00 | 27 | 1015.1 |
| 20260507194010 | 18 | 310 | 1.6 | 4.8 | 0.00 | 0.00 | 0.00 | 28 | 1015.1 |
| 20260507193510 | 17 | 287 | 1.6 | 4.8 | 0.00 | 0.00 | 0.00 | 29 | 1015.2 |
| 20260507193009 | 17 | 299 | 1.6 | 3.2 | 0.00 | 0.00 | 0.00 | 29 | 1015.2 |
| 20260507192508 | 17 | 304 | 1.6 | 1.6 | 0.00 | 0.00 | 0.00 | 29 | 1015.3 |
| 20260507192007 | 17 | 285 | 1.6 | 1.6 | 0.00 | 0.00 | 0.00 | 29 | 1015.3 |
| 20260507191507 | 18 | 292 | 1.6 | 4.8 | 0.00 | 0.00 | 0.00 | 29 | 1015.5 |
| 20260507191006 | 18 | 309 | 1.6 | 3.2 | 0.00 | 0.00 | 0.00 | 29 | 1015.6 |
| 20260507190505 | 17 | 306 | 1.6 | 1.6 | 0.00 | 0.00 | 0.00 | 30 | 1015.7 |
| 20260507190005 | 17 | 318 | 1.6 | 3.2 | 0.00 | 0.00 | 0.00 | 30 | 1015.7 |
| 20260507185504 | 18 | 301 | 1.6 | 3.2 | 0.00 | 0.00 | 0.00 | 30 | 1015.8 |
| 20260507185003 | 17 | 293 | 1.6 | 3.2 | 0.00 | 0.00 | 0.00 | 31 | 1015.8 |
| 20260507184503 | 17 | 306 | 1.6 | 1.6 | 0.00 | 0.00 | 0.00 | 31 | 1015.8 |
| 20260507184002 | 17 | 306 | 1.6 | 4.8 | 0.00 | 0.00 | 0.00 | 30 | 1015.8 |
| 20260507183501 | 17 | 320 | 1.6 | 3.2 | 0.00 | 0.00 | 0.00 | 31 | 1015.8 |
| 20260507183001 | 17 | 306 | 1.6 | 1.6 | 0.00 | 0.00 | 0.00 | 30 | 1015.8 |
| 20260507182500 | 17 | 278 | 1.6 | 1.6 | 0.00 | 0.00 | 0.00 | 31 | 1015.8 |
| 20260507182000 | 17 | 294 | 1.6 | 1.6 | 0.00 | 0.00 | 0.00 | 33 | 1015.8 |
| 20260507181459 | 17 | 275 | 1.6 | 1.6 | 0.00 | 0.00 | 0.00 | 33 | 1015.9 |
| 20260507180958 | 17 | 273 | 1.6 | 4.8 | 0.00 | 0.00 | 0.00 | 34 | 1015.9 |
| 20260507180458 | 17 | 274 | 1.6 | 1.6 | 0.00 | 0.00 | 0.00 | 34 | 1015.9 |
| 20260507175957 | 17 | 281 | 1.6 | 1.6 | 0.00 | 0.00 | 0.00 | 34 | 1016.1 |
| 20260507175456 | 17 | 263 | 3.2 | 4.8 | 0.00 | 0.00 | 0.00 | 34 | 1016.1 |
| 20260507174956 | 17 | 276 | 1.6 | 3.2 | 0.00 | 0.00 | 0.00 | 35 | 1016.1 |
| 20260507174455 | 17 | 279 | 1.6 | 1.6 | 0.00 | 0.00 | 0.00 | 34 | 1016.1 |
| 20260507173955 | 16 | 265 | 1.6 | 3.2 | 0.00 | 0.00 | 0.00 | 35 | 1016.1 |
| 20260507173454 | 16 | 263 | 1.6 | 3.2 | 0.00 | 0.00 | 0.00 | 35 | 1016.2 |
| 20260507172953 | 17 | 279 | 1.6 | 1.6 | 0.00 | 0.00 | 0.00 | 34 | 1016.2 |
| 20260507172453 | 16 | 275 | 1.6 | 1.6 | 0.00 | 0.00 | 0.00 | 34 | 1016.3 |
| 20260507171952 | 16 | 272 | 1.6 | 3.2 | 0.00 | 0.00 | 0.00 | 35 | 1016.3 |
| 20260507171451 | 16 | 248 | 3.2 | 4.8 | 0.00 | 0.00 | 0.00 | 35 | 1016.3 |
| 20260507170951 | 15 | 259 | 1.6 | 4.8 | 0.00 | 0.00 | 0.00 | 35 | 1016.4 |
| 20260507170450 | 15 | 267 | 1.6 | 3.2 | 0.00 | 0.00 | 0.00 | 39 | 1016.4 |
| 20260507165949 | 15 | 261 | 1.6 | 3.2 | 0.00 | 0.00 | 0.00 | 36 | 1016.5 |
| 20260507165449 | 15 | 266 | 1.6 | 1.6 | 0.00 | 0.00 | 0.00 | 37 | 1016.5 |
| 20260507164948 | 15 | 249 | 3.2 | 4.8 | 0.00 | 0.00 | 0.00 | 39 | 1016.5 |
| 20260507164448 | 15 | 268 | 1.6 | 3.2 | 0.00 | 0.00 | 0.00 | 37 | 1016.5 |
| 20260507163947 | 15 | 275 | 1.6 | 1.6 | 0.00 | 0.00 | 0.00 | 37 | 1016.6 |
| 20260507163446 | 15 | 265 | 1.6 | 3.2 | 0.00 | 0.00 | 0.00 | 36 | 1016.6 |
| 20260507162945 | 15 | 252 | 3.2 | 4.8 | 0.00 | 0.00 | 0.00 | 39 | 1016.6 |
| 20260507162445 | 15 | 253 | 3.2 | 4.8 | 0.00 | 0.00 | 0.00 | 39 | 1016.5 |
| 20260507161944 | 14 | 260 | 3.2 | 4.8 | 0.00 | 0.00 | 0.00 | 39 | 1016.6 |
| 20260507161443 | 14 | 268 | 1.6 | 3.2 | 0.00 | 0.00 | 0.00 | 38 | 1016.6 |
| 20260507160943 | 14 | 250 | 3.2 | 4.8 | 0.00 | 0.00 | 0.00 | 38 | 1016.6 |
| 20260507160442 | 13 | 255 | 3.2 | 4.8 | 0.00 | 0.00 | 0.00 | 38 | 1016.8 |
| 20260507155942 | 13 | 252 | 3.2 | 4.8 | 0.00 | 0.00 | 0.00 | 39 | 1016.9 |
| 20260507155441 | 13 | 254 | 1.6 | 3.2 | 0.00 | 0.00 | 0.00 | 39 | 1017.0 |
| 20260507154940 | 13 | 254 | 1.6 | 4.8 | 0.00 | 0.00 | 0.00 | 39 | 1017.0 |
| 20260507154440 | 13 | 249 | 3.2 | 4.8 | 0.00 | 0.00 | 0.00 | 39 | 1017.0 |
| 20260507153939 | 12 | 258 | 1.6 | 4.8 | 0.00 | 0.00 | 0.00 | 41 | 1017.1 |
| 20260507153438 | 12 | 253 | 1.6 | 1.6 | 0.00 | 0.00 | 0.00 | 43 | 1017.1 |
| 20260507152938 | 11 | 250 | 3.2 | 4.8 | 0.00 | 0.00 | 0.00 | 42 | 1017.0 |
| 20260507152437 | 11 | 238 | 3.2 | 3.2 | 0.00 | 0.00 | 0.00 | 42 | 1017.0 |
| 20260507151937 | 11 | 243 | 1.6 | 3.2 | 0.00 | 0.00 | 0.00 | 43 | 1017.0 |
| 20260507151436 | 11 | 241 | 1.6 | 3.2 | 0.00 | 0.00 | 0.00 | 43 | 1017.0 |
| 20260507150935 | 11 | 240 | 3.2 | 3.2 | 0.00 | 0.00 | 0.00 | 42 | 1017.1 |
| 20260507150435 | 10 | 246 | 1.6 | 3.2 | 0.00 | 0.00 | 0.00 | 44 | 1017.2 |
| 20260507145934 | 10 | 248 | 3.2 | 3.2 | 0.00 | 0.00 | 0.00 | 43 | 1017.2 |
| 20260507145827 | 10 | 242 | 1.6 | 1.6 | 0.00 | 0.00 | 0.00 | 44 | 1017.2 |
| 20260507145433 | 10 | 242 | 1.6 | 1.6 | 0.00 | 0.00 | 0.00 | 44 | 1017.2 |
| 20260507144933 | 10 | 247 | 1.6 | 3.2 | 0.00 | 0.00 | 0.00 | 44 | 1017.2 |
| 20260507144432 | 10 | 240 | 1.6 | 3.2 | 0.00 | 0.00 | 0.00 | 44 | 1017.2 |
| 20260507143932 | 10 | 210 | 3.2 | 4.8 | 0.00 | 0.00 | 0.00 | 43 | 1017.1 |
| 20260507143431 | 9 | 241 | 1.6 | 3.2 | 0.00 | 0.00 | 0.00 | 44 | 1017.2 |
| 20260507142930 | 9 | 229 | 1.6 | 3.2 | 0.00 | 0.00 | 0.00 | 44 | 1017.1 |
| 20260507142430 | 9 | 241 | 3.2 | 3.2 | 0.00 | 0.00 | 0.00 | 45 | 1017.1 |
| 20260507141929 | 8 | 237 | 3.2 | 3.2 | 0.00 | 0.00 | 0.00 | 46 | 1017.0 |
| 20260507141428 | 8 | 244 | 1.6 | 3.2 | 0.00 | 0.00 | 0.00 | 46 | 1017.1 |
| 20260507140928 | 8 | 244 | 1.6 | 3.2 | 0.00 | 0.00 | 0.00 | 45 | 1017.1 |
| 20260507140427 | 8 | 243 | 1.6 | 3.2 | 0.00 | 0.00 | 0.00 | 47 | 1017.1 |
| 20260507135926 | 8 | 246 | 1.6 | 3.2 | 0.00 | 0.00 | 0.00 | 46 | 1017.0 |
| 20260507135426 | 7 | 258 | 1.6 | 3.2 | 0.00 | 0.00 | 0.00 | 47 | 1017.1 |
| 20260507134925 | 7 | 249 | 1.6 | 3.2 | 0.00 | 0.00 | 0.00 | 48 | 1017.0 |
| 20260507134425 | 7 | 246 | 1.6 | 3.2 | 0.00 | 0.00 | 0.00 | 48 | 1017.1 |
| 20260507133924 | 7 | 245 | 1.6 | 3.2 | 0.00 | 0.00 | 0.00 | 48 | 1017.1 |
| 20260507133423 | 7 | 256 | 1.6 | 3.2 | 0.00 | 0.00 | 0.00 | 49 | 1017.0 |
| 20260507133332 | 6 | 248 | 1.6 | 3.2 | 0.00 | 0.00 | 0.00 | 49 | 1017.0 |
| 20260507132923 | 6 | 248 | 1.6 | 3.2 | 0.00 | 0.00 | 0.00 | 49 | 1017.0 |
| 20260507132827 | 6 | 246 | 3.2 | 4.8 | 0.00 | 0.00 | 0.00 | 48 | 1016.9 |
| 20260507132422 | 6 | 246 | 3.2 | 4.8 | 0.00 | 0.00 | 0.00 | 48 | 1016.9 |
| 20260507131921 | 6 | 250 | 3.2 | 3.2 | 0.00 | 0.00 | 0.00 | 48 | 1016.8 |
| 20260507131421 | 6 | 243 | 3.2 | 3.2 | 0.00 | 0.00 | 0.00 | 48 | 1016.8 |
| 20260507131330 | 6 | 245 | 3.2 | 3.2 | 0.00 | 0.00 | 0.00 | 49 | 1016.8 |
| 20260507130920 | 6 | 245 | 3.2 | 3.2 | 0.00 | 0.00 | 0.00 | 49 | 1016.8 |
| 20260507130829 | 5 | 242 | 3.2 | 3.2 | 0.00 | 0.00 | 0.00 | 49 | 1016.8 |
| 20260507130420 | 5 | 242 | 3.2 | 3.2 | 0.00 | 0.00 | 0.00 | 49 | 1016.8 |
| 20260507130324 | 5 | 241 | 1.6 | 3.2 | 0.00 | 0.00 | 0.00 | 51 | 1016.8 |
| 20260507125919 | 5 | 241 | 1.6 | 3.2 | 0.00 | 0.00 | 0.00 | 51 | 1016.8 |
| 20260507125828 | 5 | 251 | 1.6 | 3.2 | 0.00 | 0.00 | 0.00 | 51 | 1016.8 |
| 20260507125418 | 5 | 251 | 1.6 | 3.2 | 0.00 | 0.00 | 0.00 | 51 | 1016.8 |
| 20260507124918 | 5 | 240 | 1.6 | 3.2 | 0.00 | 0.00 | 0.00 | 51 | 1016.6 |
| 20260507124417 | 5 | 249 | 1.6 | 3.2 | 0.00 | 0.00 | 0.00 | 51 | 1016.6 |
| 20260507123917 | 5 | 247 | 1.6 | 3.2 | 0.00 | 0.00 | 0.00 | 52 | 1016.4 |
| 20260507123418 | 4 | 244 | 1.6 | 3.2 | 0.00 | 0.00 | 0.00 | 52 | 1016.4 |
| 20260507122915 | 4 | 246 | 1.6 | 3.2 | 0.00 | 0.00 | 0.00 | 53 | 1016.4 |
| 20260507122415 | 4 | 246 | 1.6 | 3.2 | 0.00 | 0.00 | 0.00 | 53 | 1016.3 |
| 20260507121914 | 4 | 249 | 1.6 | 3.2 | 0.00 | 0.00 | 0.00 | 52 | 1016.4 |
| 20260507121413 | 4 | 250 | 3.2 | 3.2 | 0.00 | 0.00 | 0.00 | 52 | 1016.3 |
| 20260507120913 | 4 | 247 | 1.6 | 3.2 | 0.00 | 0.00 | 0.00 | 53 | 1016.4 |
| 20260507120412 | 3 | 242 | 1.6 | 3.2 | 0.00 | 0.00 | 0.00 | 53 | 1016.4 |
| 20260507115912 | 3 | 240 | 1.6 | 3.2 | 0.00 | 0.00 | 0.00 | 54 | 1016.4 |
| 20260507115821 | 3 | 240 | 1.6 | 1.6 | 0.00 | 0.00 | 0.00 | 54 | 1016.4 |